Time,TemperatureF,DewpointF,PressureIn,WindDirection,WindDirectionDegrees,WindSpeedMPH,WindSpeedGustMPH,Humidity,HourlyPrecipIn,Conditions,Clouds,dailyrainin,SoftwareType,DateUTC
2013-03-11 00:00:00,54.1,40.0,29.82,South,179,1.0,-999.0,59,-99.99,,,0.00,ADS-WS1 bash script,2013-03-11 04:00:00,
2013-03-11 00:05:00,54.4,40.0,29.83,SSW,207,4.0,-999.0,59,-99.99,,,0.00,ADS-WS1 bash script,2013-03-11 04:05:00,
2013-03-11 00:10:00,54.6,41.0,29.83,SW,227,3.0,-999.0,59,-99.99,,,0.00,ADS-WS1 bash script,2013-03-11 04:10:00,
2013-03-11 00:15:00,54.6,41.0,29.82,SW,224,2.0,-999.0,61,-99.99,,,0.00,ADS-WS1 bash script,2013-03-11 04:15:00,
2013-03-11 00:20:00,54.2,42.0,29.82,SW,224,1.0,-999.0,64,-99.99,,,0.00,ADS-WS1 bash script,2013-03-11 04:20:00,
2013-03-11 00:25:00,53.9,42.0,29.82,SW,217,2.0,-999.0,65,-99.99,,,0.00,ADS-WS1 bash script,2013-03-11 04:25:00,
2013-03-11 00:30:00,53.7,42.0,29.82,SSW,197,1.0,-999.0,64,-99.99,,,0.00,ADS-WS1 bash script,2013-03-11 04:30:00,
2013-03-11 00:35:00,53.5,42.0,29.82,SW,225,2.0,-999.0,65,-99.99,,,0.00,ADS-WS1 bash script,2013-03-11 04:35:00,
2013-03-11 00:45:00,53.9,42.0,29.82,SW,228,1.0,-999.0,64,-99.99,,,0.00,ADS-WS1 bash script,2013-03-11 04:45:00,
2013-03-11 00:50:00,54.1,42.0,29.82,SW,224,2.0,-999.0,64,-99.99,,,0.00,ADS-WS1 bash script,2013-03-11 04:50:00,
2013-03-11 00:55:00,54.1,41.0,29.81,SSW,211,1.0,-999.0,63,-99.99,,,0.00,ADS-WS1 bash script,2013-03-11 04:55:00,
2013-03-11 01:00:00,54.1,41.0,29.81,SW,227,1.0,-999.0,63,-99.99,,,0.00,ADS-WS1 bash script,2013-03-11 05:00:00,
2013-03-11 01:05:00,54.1,41.0,29.80,SW,232,3.0,-999.0,63,-99.99,,,0.00,ADS-WS1 bash script,2013-03-11 05:05:00,
2013-03-11 01:15:00,54.4,41.0,29.80,SW,234,3.0,-999.0,63,-99.99,,,0.00,ADS-WS1 bash script,2013-03-11 05:15:00,
2013-03-11 01:25:00,54.8,42.0,29.80,SW,235,3.0,-999.0,63,-99.99,,,0.00,ADS-WS1 bash script,2013-03-11 05:25:00,
2013-03-11 01:30:00,54.6,43.0,29.80,SW,220,3.0,-999.0,65,-99.99,,,0.00,ADS-WS1 bash script,2013-03-11 05:30:00,
2013-03-11 01:35:00,54.6,43.0,29.79,WSW,238,1.0,-999.0,65,-99.99,,,0.00,ADS-WS1 bash script,2013-03-11 05:35:00,
2013-03-11 01:40:00,54.8,42.0,29.80,WSW,245,3.0,-999.0,63,-99.99,,,0.00,ADS-WS1 bash script,2013-03-11 05:40:00,
2013-03-11 01:45:00,55.0,42.0,29.79,SW,234,2.0,-999.0,63,-99.99,,,0.00,ADS-WS1 bash script,2013-03-11 05:45:00,
2013-03-11 01:50:00,55.0,43.0,29.79,SW,230,3.0,-999.0,64,-99.99,,,0.00,ADS-WS1 bash script,2013-03-11 05:50:00,
2013-03-11 01:55:00,55.1,43.0,29.78,SW,225,4.0,-999.0,64,-99.99,,,0.00,ADS-WS1 bash script,2013-03-11 05:55:00,
2013-03-11 02:00:00,55.1,43.0,29.78,SSW,197,5.0,-999.0,65,-99.99,,,0.00,ADS-WS1 bash script,2013-03-11 06:00:00,
2013-03-11 02:05:00,55.0,43.0,29.78,SW,234,3.0,-999.0,66,-99.99,,,0.00,ADS-WS1 bash script,2013-03-11 06:05:00,
2013-03-11 02:15:00,54.6,44.0,29.77,SW,224,7.0,-999.0,67,-99.99,,,0.00,ADS-WS1 bash script,2013-03-11 06:15:00,
2013-03-11 02:20:00,55.0,44.0,29.76,SW,224,5.0,-999.0,67,-99.99,,,0.00,ADS-WS1 bash script,2013-03-11 06:20:00,
2013-03-11 02:25:00,55.1,44.0,29.76,WSW,245,6.0,-999.0,67,-99.99,,,0.00,ADS-WS1 bash script,2013-03-11 06:25:00,
2013-03-11 02:30:00,55.3,43.0,29.76,SW,224,4.0,-999.0,66,-99.99,,,0.00,ADS-WS1 bash script,2013-03-11 06:30:00,
2013-03-11 02:40:00,55.5,45.0,29.76,SSW,193,4.0,-999.0,67,-99.99,,,0.00,ADS-WS1 bash script,2013-03-11 06:40:00,
2013-03-11 02:50:00,55.8,45.0,29.76,SW,224,4.0,-999.0,67,-99.99,,,0.00,ADS-WS1 bash script,2013-03-11 06:50:00,
2013-03-11 02:55:00,55.8,45.0,29.76,West,268,6.0,-999.0,67,-99.99,,,0.00,ADS-WS1 bash script,2013-03-11 06:55:00,
2013-03-11 03:00:00,56.0,45.0,29.77,WSW,245,1.0,-999.0,68,-99.99,,,0.00,ADS-WS1 bash script,2013-03-11 07:00:00,
2013-03-11 03:05:00,56.0,45.0,29.76,SSE,163,4.0,-999.0,68,-99.99,,,0.00,ADS-WS1 bash script,2013-03-11 07:05:00,
2013-03-11 03:10:00,56.0,45.0,29.76,South,179,3.0,-999.0,68,-99.99,,,0.00,ADS-WS1 bash script,2013-03-11 07:10:00,
2013-03-11 03:15:00,56.2,45.0,29.76,South,190,4.0,-999.0,67,-99.99,,,0.00,ADS-WS1 bash script,2013-03-11 07:15:00,
2013-03-11 03:20:00,56.4,44.0,29.75,SSW,200,10.0,-999.0,66,-99.99,,,0.00,ADS-WS1 bash script,2013-03-11 07:20:00,
2013-03-11 03:25:00,56.4,44.0,29.75,South,179,7.0,-999.0,65,-99.99,,,0.00,ADS-WS1 bash script,2013-03-11 07:25:00,
2013-03-11 03:30:00,56.4,44.0,29.75,SW,224,2.0,-999.0,66,-99.99,,,0.00,ADS-WS1 bash script,2013-03-11 07:30:00,
2013-03-11 03:35:00,56.4,44.0,29.75,South,190,6.0,-999.0,66,-99.99,,,0.00,ADS-WS1 bash script,2013-03-11 07:35:00,
2013-03-11 03:40:00,56.6,45.0,29.75,South,179,5.0,-999.0,65,-99.99,,,0.00,ADS-WS1 bash script,2013-03-11 07:40:00,
2013-03-11 03:45:00,56.7,45.0,29.74,SW,214,5.0,-999.0,66,-99.99,,,0.00,ADS-WS1 bash script,2013-03-11 07:45:00,
2013-03-11 03:50:00,56.7,45.0,29.73,SW,224,6.0,-999.0,65,-99.99,,,0.00,ADS-WS1 bash script,2013-03-11 07:50:00,
2013-03-11 03:55:00,56.6,45.0,29.73,SSW,200,7.0,-999.0,66,-99.99,,,0.00,ADS-WS1 bash script,2013-03-11 07:55:00,
2013-03-11 04:00:00,56.6,45.0,29.73,SSW,200,5.0,-999.0,66,-99.99,,,0.00,ADS-WS1 bash script,2013-03-11 08:00:00,
2013-03-11 04:05:00,56.6,45.0,29.73,SSW,200,11.0,-999.0,66,-99.99,,,0.00,ADS-WS1 bash script,2013-03-11 08:05:00,
2013-03-11 04:15:00,56.4,45.0,29.73,SSW,200,8.0,-999.0,69,-99.99,,,0.00,ADS-WS1 bash script,2013-03-11 08:15:00,
2013-03-11 04:20:00,56.4,45.0,29.73,South,179,18.0,-999.0,69,-99.99,,,0.00,ADS-WS1 bash script,2013-03-11 08:20:00,
2013-03-11 04:25:00,56.6,47.0,29.73,SW,224,6.0,-999.0,70,-99.99,,,0.00,ADS-WS1 bash script,2013-03-11 08:25:00,
2013-03-11 04:30:00,56.4,46.0,29.73,SW,224,10.0,-999.0,71,-99.99,,,0.00,ADS-WS1 bash script,2013-03-11 08:30:00,
2013-03-11 04:35:00,56.2,46.0,29.73,South,179,5.0,-999.0,71,-99.99,,,0.00,ADS-WS1 bash script,2013-03-11 08:35:00,
2013-03-11 04:45:00,55.8,47.0,29.73,SSW,208,6.0,-999.0,73,-99.99,,,0.00,ADS-WS1 bash script,2013-03-11 08:45:00,
2013-03-11 04:50:00,55.7,47.0,29.73,SW,220,6.0,-999.0,75,-99.99,,,0.00,ADS-WS1 bash script,2013-03-11 08:50:00,
2013-03-11 04:55:00,55.5,47.0,29.73,SSW,207,6.0,-999.0,75,-99.99,,,0.00,ADS-WS1 bash script,2013-03-11 08:55:00,
2013-03-11 05:00:00,55.5,47.0,29.73,SW,220,3.0,-999.0,75,-99.99,,,0.00,ADS-WS1 bash script,2013-03-11 09:00:00,
2013-03-11 05:05:00,55.1,47.0,29.73,SSW,200,7.0,-999.0,76,-99.99,,,0.00,ADS-WS1 bash script,2013-03-11 09:05:00,
2013-03-11 05:10:00,55.1,47.0,29.72,South,179,2.0,-999.0,76,-99.99,,,0.00,ADS-WS1 bash script,2013-03-11 09:10:00,
2013-03-11 05:15:00,55.0,47.0,29.73,SSE,156,9.0,-999.0,76,-99.99,,,0.00,ADS-WS1 bash script,2013-03-11 09:15:00,
2013-03-11 05:20:00,54.8,46.0,29.72,SSW,200,3.0,-999.0,75,-99.99,,,0.00,ADS-WS1 bash script,2013-03-11 09:20:00,
2013-03-11 05:25:00,54.8,47.0,29.72,SW,225,7.0,-999.0,77,-99.99,,,0.00,ADS-WS1 bash script,2013-03-11 09:25:00,
2013-03-11 05:30:00,54.8,47.0,29.73,SW,224,8.0,-999.0,76,-99.99,,,0.00,ADS-WS1 bash script,2013-03-11 09:30:00,
2013-03-11 05:40:00,54.8,47.0,29.72,South,179,6.0,-999.0,76,-99.99,,,0.00,ADS-WS1 bash script,2013-03-11 09:40:00,
2013-03-11 05:45:00,55.0,47.0,29.72,South,179,13.0,-999.0,76,-99.99,,,0.00,ADS-WS1 bash script,2013-03-11 09:45:00,
2013-03-11 05:50:00,55.0,46.0,29.73,SSW,200,4.0,-999.0,75,-99.99,,,0.00,ADS-WS1 bash script,2013-03-11 09:50:00,
2013-03-11 05:55:00,55.0,46.0,29.72,SSW,200,6.0,-999.0,75,-99.99,,,0.00,ADS-WS1 bash script,2013-03-11 09:55:00,
2013-03-11 06:00:00,55.0,46.0,29.72,SW,224,6.0,-999.0,75,-99.99,,,0.00,ADS-WS1 bash script,2013-03-11 10:00:00,
2013-03-11 06:05:00,55.1,46.0,29.72,SSW,210,6.0,-999.0,75,-99.99,,,0.00,ADS-WS1 bash script,2013-03-11 10:05:00,
2013-03-11 06:15:00,55.1,46.0,29.71,SW,224,8.0,-999.0,75,-99.99,,,0.00,ADS-WS1 bash script,2013-03-11 10:15:00,
2013-03-11 06:20:00,55.1,46.0,29.72,SW,231,5.0,-999.0,74,-99.99,,,0.00,ADS-WS1 bash script,2013-03-11 10:20:00,
2013-03-11 06:30:00,55.1,46.0,29.72,SSW,200,12.0,-999.0,75,-99.99,,,0.00,ADS-WS1 bash script,2013-03-11 10:30:00,
2013-03-11 06:35:00,55.0,47.0,29.73,SSW,200,4.0,-999.0,77,-99.99,,,0.00,ADS-WS1 bash script,2013-03-11 10:35:00,
2013-03-11 06:40:00,54.4,48.0,29.73,SW,224,6.0,-999.0,81,-99.99,,,0.00,ADS-WS1 bash script,2013-03-11 10:40:00,
2013-03-11 06:45:00,53.7,49.0,29.73,SSW,200,8.0,-999.0,84,-99.99,,,0.00,ADS-WS1 bash script,2013-03-11 10:45:00,
2013-03-11 06:50:00,53.2,48.0,29.73,SW,215,5.0,-999.0,86,-99.99,,,0.00,ADS-WS1 bash script,2013-03-11 10:50:00,
2013-03-11 06:55:00,52.8,49.0,29.74,SSW,211,6.0,-999.0,87,-99.99,,,0.00,ADS-WS1 bash script,2013-03-11 10:55:00,
2013-03-11 07:00:00,52.6,50.0,29.74,West,261,3.0,-999.0,89,-99.99,,,1.00,ADS-WS1 bash script,2013-03-11 11:00:00,
2013-03-11 07:05:00,52.3,49.0,29.73,WSW,245,6.0,-999.0,90,-99.99,,,1.00,ADS-WS1 bash script,2013-03-11 11:05:00,
2013-03-11 07:10:00,52.1,50.0,29.73,South,187,2.0,-999.0,92,-99.99,,,1.00,ADS-WS1 bash script,2013-03-11 11:10:00,
2013-03-11 07:15:00,51.9,50.0,29.74,South,190,5.0,-999.0,92,-99.99,,,2.00,ADS-WS1 bash script,2013-03-11 11:15:00,
2013-03-11 07:20:00,51.7,50.0,29.73,South,191,6.0,-999.0,93,-99.99,,,2.00,ADS-WS1 bash script,2013-03-11 11:20:00,
2013-03-11 07:25:00,51.5,50.0,29.73,WSW,237,1.0,-999.0,93,-99.99,,,2.00,ADS-WS1 bash script,2013-03-11 11:25:00,
2013-03-11 07:35:00,51.5,50.0,29.72,West,259,3.0,-999.0,93,-99.99,,,2.00,ADS-WS1 bash script,2013-03-11 11:35:00,
2013-03-11 07:40:00,51.5,50.0,29.72,SW,224,3.0,-999.0,92,-99.99,,,2.00,ADS-WS1 bash script,2013-03-11 11:40:00,
2013-03-11 07:45:00,51.5,50.0,29.71,SSW,206,4.0,-999.0,92,-99.99,,,2.00,ADS-WS1 bash script,2013-03-11 11:45:00,
2013-03-11 07:50:00,51.4,49.0,29.71,South,182,4.0,-999.0,92,-99.99,,,2.00,ADS-WS1 bash script,2013-03-11 11:50:00,
2013-03-11 07:55:00,51.4,49.0,29.71,SW,231,6.0,-999.0,93,-99.99,,,2.00,ADS-WS1 bash script,2013-03-11 11:55:00,
2013-03-11 08:00:00,51.4,49.0,29.71,WSW,237,5.0,-999.0,92,-99.99,,,2.00,ADS-WS1 bash script,2013-03-11 12:00:00,
2013-03-11 08:05:00,51.4,49.0,29.71,SW,232,5.0,-999.0,92,-99.99,,,2.00,ADS-WS1 bash script,2013-03-11 12:05:00,
2013-03-11 08:15:00,51.2,49.0,29.72,SW,230,2.0,-999.0,93,-99.99,,,2.00,ADS-WS1 bash script,2013-03-11 12:15:00,
2013-03-11 08:20:00,51.0,49.0,29.72,South,179,1.0,-999.0,93,-99.99,,,2.00,ADS-WS1 bash script,2013-03-11 12:20:00,
2013-03-11 08:25:00,51.0,49.0,29.71,SSE,163,2.0,-999.0,93,-99.99,,,2.00,ADS-WS1 bash script,2013-03-11 12:25:00,
2013-03-11 08:30:00,50.8,49.0,29.72,South,179,2.0,-999.0,93,-99.99,,,2.00,ADS-WS1 bash script,2013-03-11 12:30:00,
2013-03-11 08:35:00,50.8,49.0,29.71,SW,217,5.0,-999.0,93,-99.99,,,2.00,ADS-WS1 bash script,2013-03-11 12:35:00,
2013-03-11 08:40:00,51.2,48.0,29.72,SW,217,3.0,-999.0,91,-99.99,,,2.00,ADS-WS1 bash script,2013-03-11 12:40:00,
2013-03-11 08:45:00,51.4,48.0,29.72,WSW,239,3.0,-999.0,90,-99.99,,,2.00,ADS-WS1 bash script,2013-03-11 12:45:00,
2013-03-11 08:50:00,51.5,49.0,29.71,South,182,6.0,-999.0,90,-99.99,,,2.00,ADS-WS1 bash script,2013-03-11 12:50:00,
2013-03-11 08:55:00,51.9,48.0,29.71,SW,220,6.0,-999.0,88,-99.99,,,2.00,ADS-WS1 bash script,2013-03-11 12:55:00,
2013-03-11 09:00:00,52.3,48.0,29.71,SSW,203,5.0,-999.0,87,-99.99,,,3.00,ADS-WS1 bash script,2013-03-11 13:00:00,
2013-03-11 09:10:00,52.6,48.0,29.71,SSW,206,6.0,-999.0,84,-99.99,,,3.00,ADS-WS1 bash script,2013-03-11 13:10:00,
2013-03-11 09:15:00,52.8,48.0,29.71,SW,224,3.0,-999.0,84,-99.99,,,3.00,ADS-WS1 bash script,2013-03-11 13:15:00,
2013-03-11 09:20:00,53.0,47.0,29.71,SW,235,2.0,-999.0,83,-99.99,,,3.00,ADS-WS1 bash script,2013-03-11 13:20:00,
2013-03-11 09:25:00,53.2,47.0,29.71,WSW,242,4.0,-999.0,82,-99.99,,,3.00,ADS-WS1 bash script,2013-03-11 13:25:00,
2013-03-11 09:30:00,53.2,47.0,29.70,South,179,5.0,-999.0,81,-99.99,,,3.00,ADS-WS1 bash script,2013-03-11 13:30:00,
2013-03-11 09:35:00,53.3,47.0,29.70,SW,217,6.0,-999.0,81,-99.99,,,3.00,ADS-WS1 bash script,2013-03-11 13:35:00,
2013-03-11 09:40:00,53.5,48.0,29.70,WSW,244,5.0,-999.0,81,-99.99,,,3.00,ADS-WS1 bash script,2013-03-11 13:40:00,
2013-03-11 09:50:00,53.9,48.0,29.70,SSW,203,8.0,-999.0,81,-99.99,,,3.00,ADS-WS1 bash script,2013-03-11 13:50:00,
2013-03-11 09:55:00,53.9,47.0,29.70,SSW,200,4.0,-999.0,80,-99.99,,,3.00,ADS-WS1 bash script,2013-03-11 13:55:00,
2013-03-11 10:00:00,54.1,47.0,29.70,SSW,194,2.0,-999.0,80,-99.99,,,3.00,ADS-WS1 bash script,2013-03-11 14:00:00,
2013-03-11 10:05:00,54.1,47.0,29.70,South,190,4.0,-999.0,80,-99.99,,,3.00,ADS-WS1 bash script,2013-03-11 14:05:00,
2013-03-11 10:10:00,54.1,47.0,29.70,WSW,245,4.0,-999.0,80,-99.99,,,3.00,ADS-WS1 bash script,2013-03-11 14:10:00,
2013-03-11 10:15:00,54.1,47.0,29.70,SSW,200,3.0,-999.0,80,-99.99,,,3.00,ADS-WS1 bash script,2013-03-11 14:15:00,
2013-03-11 10:20:00,54.1,48.0,29.70,SW,217,3.0,-999.0,81,-99.99,,,3.00,ADS-WS1 bash script,2013-03-11 14:20:00,
2013-03-11 10:25:00,54.1,48.0,29.70,SSW,207,3.0,-999.0,82,-99.99,,,3.00,ADS-WS1 bash script,2013-03-11 14:25:00,
2013-03-11 10:30:00,54.1,48.0,29.69,SW,218,2.0,-999.0,81,-99.99,,,3.00,ADS-WS1 bash script,2013-03-11 14:30:00,
2013-03-11 10:35:00,54.1,48.0,29.70,SW,232,4.0,-999.0,83,-99.99,,,3.00,ADS-WS1 bash script,2013-03-11 14:35:00,
2013-03-11 10:40:00,54.1,48.0,29.70,South,179,7.0,-999.0,82,-99.99,,,3.00,ADS-WS1 bash script,2013-03-11 14:40:00,
2013-03-11 10:50:00,53.9,48.0,29.69,South,179,5.0,-999.0,83,-99.99,,,3.00,ADS-WS1 bash script,2013-03-11 14:50:00,
2013-03-11 10:55:00,53.7,49.0,29.68,South,173,7.0,-999.0,84,-99.99,,,3.00,ADS-WS1 bash script,2013-03-11 14:55:00,
2013-03-11 11:00:00,53.5,49.0,29.69,SSW,203,5.0,-999.0,84,-99.99,,,3.00,ADS-WS1 bash script,2013-03-11 15:00:00,
2013-03-11 11:05:00,53.2,48.0,29.68,South,187,10.0,-999.0,86,-99.99,,,3.00,ADS-WS1 bash script,2013-03-11 15:05:00,
2013-03-11 11:10:00,52.8,49.0,29.68,SSW,199,4.0,-999.0,88,-99.99,,,3.00,ADS-WS1 bash script,2013-03-11 15:10:00,
2013-03-11 11:20:00,52.1,48.0,29.68,SW,225,6.0,-999.0,88,-99.99,,,3.00,ADS-WS1 bash script,2013-03-11 15:20:00,
2013-03-11 11:25:00,52.1,48.0,29.68,SW,214,10.0,-999.0,88,-99.99,,,3.00,ADS-WS1 bash script,2013-03-11 15:25:00,
2013-03-11 11:30:00,51.9,49.0,29.68,South,183,2.0,-999.0,89,-99.99,,,3.00,ADS-WS1 bash script,2013-03-11 15:30:00,
2013-03-11 11:40:00,51.9,48.0,29.67,South,179,3.0,-999.0,88,-99.99,,,3.00,ADS-WS1 bash script,2013-03-11 15:40:00,
2013-03-11 11:50:00,52.1,48.0,29.66,SW,218,5.0,-999.0,87,-99.99,,,3.00,ADS-WS1 bash script,2013-03-11 15:50:00,
2013-03-11 11:55:00,52.3,47.0,29.66,SSW,200,9.0,-999.0,86,-99.99,,,3.00,ADS-WS1 bash script,2013-03-11 15:55:00,
2013-03-11 12:00:00,52.4,47.0,29.66,SW,234,3.0,-999.0,86,-99.99,,,3.00,ADS-WS1 bash script,2013-03-11 16:00:00,
2013-03-11 12:05:00,52.6,48.0,29.66,SSW,210,3.0,-999.0,85,-99.99,,,3.00,ADS-WS1 bash script,2013-03-11 16:05:00,
2013-03-11 12:10:00,52.6,48.0,29.65,SE,134,4.0,-999.0,86,-99.99,,,3.00,ADS-WS1 bash script,2013-03-11 16:10:00,
2013-03-11 12:15:00,52.4,47.0,29.65,South,179,9.0,-999.0,86,-99.99,,,3.00,ADS-WS1 bash script,2013-03-11 16:15:00,
2013-03-11 12:20:00,52.3,49.0,29.65,SSW,200,4.0,-999.0,89,-99.99,,,4.00,ADS-WS1 bash script,2013-03-11 16:20:00,
2013-03-11 12:25:00,52.1,49.0,29.64,SW,224,4.0,-999.0,89,-99.99,,,4.00,ADS-WS1 bash script,2013-03-11 16:25:00,
2013-03-11 12:30:00,52.1,49.0,29.64,South,179,3.0,-999.0,89,-99.99,,,4.00,ADS-WS1 bash script,2013-03-11 16:30:00,
2013-03-11 12:35:00,52.1,49.0,29.63,South,186,3.0,-999.0,89,-99.99,,,4.00,ADS-WS1 bash script,2013-03-11 16:35:00,
2013-03-11 12:40:00,52.1,48.0,29.63,SSW,200,7.0,-999.0,88,-99.99,,,4.00,ADS-WS1 bash script,2013-03-11 16:40:00,
2013-03-11 12:50:00,52.4,48.0,29.63,SSW,200,5.0,-999.0,87,-99.99,,,4.00,ADS-WS1 bash script,2013-03-11 16:50:00,
2013-03-11 12:55:00,52.4,47.0,29.62,South,179,4.0,-999.0,86,-99.99,,,4.00,ADS-WS1 bash script,2013-03-11 16:55:00,
2013-03-11 13:00:00,52.4,47.0,29.62,South,179,3.0,-999.0,86,-99.99,,,4.00,ADS-WS1 bash script,2013-03-11 17:00:00,
2013-03-11 13:05:00,52.6,48.0,29.62,SSW,200,2.0,-999.0,84,-99.99,,,4.00,ADS-WS1 bash script,2013-03-11 17:05:00,
2013-03-11 13:10:00,52.8,47.0,29.62,South,179,3.0,-999.0,83,-99.99,,,4.00,ADS-WS1 bash script,2013-03-11 17:10:00,
2013-03-11 13:15:00,52.8,47.0,29.62,South,179,6.0,-999.0,82,-99.99,,,4.00,ADS-WS1 bash script,2013-03-11 17:15:00,
2013-03-11 13:20:00,53.0,47.0,29.62,South,179,5.0,-999.0,81,-99.99,,,4.00,ADS-WS1 bash script,2013-03-11 17:20:00,
2013-03-11 13:25:00,53.0,46.0,29.61,SSE,156,4.0,-999.0,80,-99.99,,,4.00,ADS-WS1 bash script,2013-03-11 17:25:00,
2013-03-11 13:30:00,52.8,46.0,29.61,SW,231,5.0,-999.0,80,-99.99,,,5.00,ADS-WS1 bash script,2013-03-11 17:30:00,
2013-03-11 13:35:00,52.8,47.0,29.60,South,179,7.0,-999.0,81,-99.99,,,5.00,ADS-WS1 bash script,2013-03-11 17:35:00,
2013-03-11 13:40:00,52.8,47.0,29.59,SW,228,4.0,-999.0,81,-99.99,,,5.00,ADS-WS1 bash script,2013-03-11 17:40:00,
2013-03-11 13:45:00,52.8,47.0,29.59,South,179,4.0,-999.0,81,-99.99,,,5.00,ADS-WS1 bash script,2013-03-11 17:45:00,
2013-03-11 13:50:00,53.0,48.0,29.58,SSE,156,4.0,-999.0,84,-99.99,,,5.00,ADS-WS1 bash script,2013-03-11 17:50:00,
2013-03-11 14:00:00,53.0,47.0,29.58,South,179,2.0,-999.0,83,-99.99,,,5.00,ADS-WS1 bash script,2013-03-11 18:00:00,
2013-03-11 14:05:00,52.6,47.0,29.58,WSW,245,3.0,-999.0,83,-99.99,,,5.00,ADS-WS1 bash script,2013-03-11 18:05:00,
2013-03-11 14:10:00,52.3,47.0,29.57,SSE,166,6.0,-999.0,85,-99.99,,,7.00,ADS-WS1 bash script,2013-03-11 18:10:00,
2013-03-11 14:15:00,51.9,48.0,29.57,SSE,162,5.0,-999.0,88,-99.99,,,9.00,ADS-WS1 bash script,2013-03-11 18:15:00,
2013-03-11 14:25:00,51.4,48.0,29.56,South,187,5.0,-999.0,91,-99.99,,,13.00,ADS-WS1 bash script,2013-03-11 18:25:00,
2013-03-11 14:35:00,51.2,49.0,29.55,East,94,2.0,-999.0,92,-99.99,,,15.00,ADS-WS1 bash script,2013-03-11 18:35:00,
2013-03-11 14:40:00,51.2,49.0,29.55,South,179,5.0,-999.0,92,-99.99,,,15.00,ADS-WS1 bash script,2013-03-11 18:40:00,
2013-03-11 14:50:00,51.2,49.0,29.55,SW,224,4.0,-999.0,93,-99.99,,,16.00,ADS-WS1 bash script,2013-03-11 18:50:00,
2013-03-11 14:55:00,51.2,49.0,29.55,SW,228,5.0,-999.0,92,-99.99,,,16.00,ADS-WS1 bash script,2013-03-11 18:55:00,
2013-03-11 15:00:00,51.2,49.0,29.54,South,173,7.0,-999.0,93,-99.99,,,17.00,ADS-WS1 bash script,2013-03-11 19:00:00,
2013-03-11 15:05:00,51.2,49.0,29.54,SSW,210,5.0,-999.0,93,-99.99,,,17.00,ADS-WS1 bash script,2013-03-11 19:05:00,
2013-03-11 15:10:00,51.4,49.0,29.54,South,190,5.0,-999.0,93,-99.99,,,18.00,ADS-WS1 bash script,2013-03-11 19:10:00,
2013-03-11 15:15:00,51.4,49.0,29.52,SSW,210,5.0,-999.0,93,-99.99,,,18.00,ADS-WS1 bash script,2013-03-11 19:15:00,
2013-03-11 15:20:00,51.5,50.0,29.52,SSW,200,5.0,-999.0,93,-99.99,,,18.00,ADS-WS1 bash script,2013-03-11 19:20:00,
2013-03-11 15:25:00,51.5,50.0,29.52,SSW,204,5.0,-999.0,93,-99.99,,,18.00,ADS-WS1 bash script,2013-03-11 19:25:00,
2013-03-11 15:30:00,51.5,50.0,29.52,SW,215,5.0,-999.0,93,-99.99,,,19.00,ADS-WS1 bash script,2013-03-11 19:30:00,
2013-03-11 15:35:00,51.5,50.0,29.51,South,190,3.0,-999.0,92,-99.99,,,20.00,ADS-WS1 bash script,2013-03-11 19:35:00,
2013-03-11 15:40:00,51.5,50.0,29.50,SSW,207,6.0,-999.0,92,-99.99,,,20.00,ADS-WS1 bash script,2013-03-11 19:40:00,
2013-03-11 15:45:00,51.4,49.0,29.50,South,182,3.0,-999.0,93,-99.99,,,20.00,ADS-WS1 bash script,2013-03-11 19:45:00,
2013-03-11 15:50:00,51.4,49.0,29.50,SSE,166,3.0,-999.0,93,-99.99,,,20.00,ADS-WS1 bash script,2013-03-11 19:50:00,
2013-03-11 15:55:00,51.4,49.0,29.50,South,179,5.0,-999.0,93,-99.99,,,20.00,ADS-WS1 bash script,2013-03-11 19:55:00,
2013-03-11 16:00:00,51.2,49.0,29.49,SSW,207,4.0,-999.0,93,-99.99,,,20.00,ADS-WS1 bash script,2013-03-11 20:00:00,
2013-03-11 16:05:00,51.2,49.0,29.49,SW,220,3.0,-999.0,93,-99.99,,,22.00,ADS-WS1 bash script,2013-03-11 20:05:00,
2013-03-11 16:10:00,51.0,49.0,29.49,South,173,3.0,-999.0,94,-99.99,,,22.00,ADS-WS1 bash script,2013-03-11 20:10:00,
2013-03-11 16:15:00,51.0,49.0,29.50,SSW,203,3.0,-999.0,94,-99.99,,,22.00,ADS-WS1 bash script,2013-03-11 20:15:00,
2013-03-11 16:20:00,51.0,50.0,29.49,SW,235,4.0,-999.0,95,-99.99,,,22.00,ADS-WS1 bash script,2013-03-11 20:20:00,
2013-03-11 16:25:00,51.0,49.0,29.49,SW,214,3.0,-999.0,94,-99.99,,,22.00,ADS-WS1 bash script,2013-03-11 20:25:00,
2013-03-11 16:30:00,51.0,50.0,29.51,West,279,3.0,-999.0,95,-99.99,,,24.00,ADS-WS1 bash script,2013-03-11 20:30:00,
2013-03-11 16:35:00,51.0,49.0,29.51,SW,220,4.0,-999.0,94,-99.99,,,25.00,ADS-WS1 bash script,2013-03-11 20:35:00,
2013-03-11 16:40:00,51.0,50.0,29.51,WNW,289,4.0,-999.0,95,-99.99,,,25.00,ADS-WS1 bash script,2013-03-11 20:40:00,
2013-03-11 16:45:00,51.2,49.0,29.50,West,268,6.0,-999.0,94,-99.99,,,25.00,ADS-WS1 bash script,2013-03-11 20:45:00,
2013-03-11 16:50:00,51.2,49.0,29.51,WNW,289,2.0,-999.0,94,-99.99,,,25.00,ADS-WS1 bash script,2013-03-11 20:50:00,
2013-03-11 16:55:00,51.2,49.0,29.51,WSW,239,6.0,-999.0,94,-99.99,,,25.00,ADS-WS1 bash script,2013-03-11 20:55:00,
2013-03-11 17:00:00,51.0,49.0,29.52,West,271,5.0,-999.0,94,-99.99,,,25.00,ADS-WS1 bash script,2013-03-11 21:00:00,
2013-03-11 17:05:00,51.0,49.0,29.53,WNW,283,1.0,-999.0,94,-99.99,,,26.00,ADS-WS1 bash script,2013-03-11 21:05:00,
2013-03-11 17:10:00,51.0,49.0,29.53,WSW,255,6.0,-999.0,94,-99.99,,,26.00,ADS-WS1 bash script,2013-03-11 21:10:00,
2013-03-11 17:15:00,50.8,49.0,29.53,NW,313,2.0,-999.0,93,-99.99,,,1.00,ADS-WS1 bash script,2013-03-11 21:15:00,
2013-03-11 17:20:00,50.5,47.0,29.54,WNW,289,11.0,-999.0,91,-99.99,,,1.00,ADS-WS1 bash script,2013-03-11 21:20:00,
2013-03-11 17:25:00,50.1,47.0,29.53,West,265,13.0,-999.0,89,-99.99,,,1.00,ADS-WS1 bash script,2013-03-11 21:25:00,
2013-03-11 17:30:00,49.7,47.0,29.54,WSW,255,12.0,-999.0,89,-99.99,,,1.00,ADS-WS1 bash script,2013-03-11 21:30:00,
2013-03-11 17:35:00,49.6,47.0,29.54,WNW,283,4.0,-999.0,89,-99.99,,,1.00,ADS-WS1 bash script,2013-03-11 21:35:00,
2013-03-11 17:40:00,49.6,47.0,29.54,NE,36,3.0,-999.0,89,-99.99,,,1.00,ADS-WS1 bash script,2013-03-11 21:40:00,
2013-03-11 17:45:00,50.1,47.0,29.54,SW,224,6.0,-999.0,89,-99.99,,,1.00,ADS-WS1 bash script,2013-03-11 21:45:00,
2013-03-11 17:50:00,50.5,46.0,29.54,WSW,245,2.0,-999.0,88,-99.99,,,2.00,ADS-WS1 bash script,2013-03-11 21:50:00,
2013-03-11 17:55:00,50.5,45.0,29.54,SW,224,9.0,-999.0,86,-99.99,,,2.00,ADS-WS1 bash script,2013-03-11 21:55:00,
2013-03-11 18:00:00,50.3,45.0,29.54,West,268,5.0,-999.0,85,-99.99,,,2.00,ADS-WS1 bash script,2013-03-11 22:00:00,
2013-03-11 18:05:00,50.3,45.0,29.55,West,268,6.0,-999.0,84,-99.99,,,2.00,ADS-WS1 bash script,2013-03-11 22:05:00,
2013-03-11 18:10:00,50.3,45.0,29.55,West,268,6.0,-999.0,84,-99.99,,,2.00,ADS-WS1 bash script,2013-03-11 22:10:00,
2013-03-11 18:15:00,49.9,45.0,29.55,South,170,5.0,-999.0,84,-99.99,,,2.00,ADS-WS1 bash script,2013-03-11 22:15:00,
2013-03-11 18:25:00,49.6,44.0,29.55,WSW,254,9.0,-999.0,83,-99.99,,,2.00,ADS-WS1 bash script,2013-03-11 22:25:00,
2013-03-11 18:35:00,49.4,42.0,29.56,West,268,6.0,-999.0,78,-99.99,,,2.00,ADS-WS1 bash script,2013-03-11 22:35:00,
2013-03-11 18:40:00,49.0,42.0,29.56,WNW,290,3.0,-999.0,78,-99.99,,,2.00,ADS-WS1 bash script,2013-03-11 22:40:00,
2013-03-11 18:50:00,48.3,40.0,29.57,West,268,8.0,-999.0,76,-99.99,,,2.00,ADS-WS1 bash script,2013-03-11 22:50:00,
2013-03-11 18:55:00,48.1,40.0,29.57,West,268,11.0,-999.0,76,-99.99,,,2.00,ADS-WS1 bash script,2013-03-11 22:55:00,
2013-03-11 19:00:00,47.9,41.0,29.58,WSW,254,13.0,-999.0,78,-99.99,,,2.00,ADS-WS1 bash script,2013-03-11 23:00:00,
2013-03-11 19:05:00,47.8,40.0,29.58,WSW,245,6.0,-999.0,77,-99.99,,,2.00,ADS-WS1 bash script,2013-03-11 23:05:00,
2013-03-11 19:10:00,47.6,40.0,29.58,SW,231,5.0,-999.0,77,-99.99,,,2.00,ADS-WS1 bash script,2013-03-11 23:10:00,
2013-03-11 19:20:00,47.2,39.0,29.58,WSW,245,9.0,-999.0,76,-99.99,,,2.00,ADS-WS1 bash script,2013-03-11 23:20:00,
2013-03-11 19:25:00,47.0,39.0,29.59,WSW,251,7.0,-999.0,77,-99.99,,,2.00,ADS-WS1 bash script,2013-03-11 23:25:00,
2013-03-11 19:30:00,47.0,40.0,29.59,West,268,7.0,-999.0,78,-99.99,,,2.00,ADS-WS1 bash script,2013-03-11 23:30:00,
2013-03-11 19:35:00,46.9,40.0,29.59,WSW,239,9.0,-999.0,78,-99.99,,,2.00,ADS-WS1 bash script,2013-03-11 23:35:00,
2013-03-11 19:40:00,46.7,39.0,29.59,WSW,238,9.0,-999.0,76,-99.99,,,2.00,ADS-WS1 bash script,2013-03-11 23:40:00,
2013-03-11 19:45:00,46.5,38.0,29.59,WSW,256,6.0,-999.0,77,-99.99,,,2.00,ADS-WS1 bash script,2013-03-11 23:45:00,
2013-03-11 19:50:00,46.3,38.0,29.60,WSW,254,9.0,-999.0,76,-99.99,,,2.00,ADS-WS1 bash script,2013-03-11 23:50:00,
2013-03-11 20:00:00,46.0,38.0,29.60,West,268,4.0,-999.0,76,-99.99,,,2.00,ADS-WS1 bash script,2013-03-12 00:00:00,
2013-03-11 20:05:00,45.8,38.0,29.60,SSE,149,3.0,-999.0,76,-99.99,,,2.00,ADS-WS1 bash script,2013-03-12 00:05:00,
2013-03-11 20:10:00,45.6,37.0,29.61,West,268,8.0,-999.0,75,-99.99,,,2.00,ADS-WS1 bash script,2013-03-12 00:10:00,
2013-03-11 20:15:00,45.4,38.0,29.62,WNW,283,6.0,-999.0,79,-99.99,,,2.00,ADS-WS1 bash script,2013-03-12 00:15:00,
2013-03-11 20:20:00,44.9,37.0,29.61,WSW,249,5.0,-999.0,77,-99.99,,,2.00,ADS-WS1 bash script,2013-03-12 00:20:00,
2013-03-11 20:30:00,44.2,36.0,29.62,WNW,283,15.0,-999.0,76,-99.99,,,2.00,ADS-WS1 bash script,2013-03-12 00:30:00,
2013-03-11 20:40:00,44.0,35.0,29.62,West,268,8.0,-999.0,75,-99.99,,,2.00,ADS-WS1 bash script,2013-03-12 00:40:00,
2013-03-11 20:45:00,43.8,36.0,29.62,West,268,6.0,-999.0,76,-99.99,,,2.00,ADS-WS1 bash script,2013-03-12 00:45:00,
2013-03-11 20:50:00,43.6,36.0,29.62,West,261,3.0,-999.0,76,-99.99,,,2.00,ADS-WS1 bash script,2013-03-12 00:50:00,
2013-03-11 20:55:00,43.6,36.0,29.63,West,275,3.0,-999.0,77,-99.99,,,2.00,ADS-WS1 bash script,2013-03-12 00:55:00,
2013-03-11 21:00:00,43.6,36.0,29.63,West,268,4.0,-999.0,77,-99.99,,,2.00,ADS-WS1 bash script,2013-03-12 01:00:00,
2013-03-11 21:05:00,43.5,36.0,29.63,WNW,283,6.0,-999.0,76,-99.99,,,2.00,ADS-WS1 bash script,2013-03-12 01:05:00,
2013-03-11 21:10:00,43.3,35.0,29.64,WSW,251,5.0,-999.0,77,-99.99,,,2.00,ADS-WS1 bash script,2013-03-12 01:10:00,
2013-03-11 21:15:00,42.9,34.0,29.64,WSW,254,9.0,-999.0,74,-99.99,,,2.00,ADS-WS1 bash script,2013-03-12 01:15:00,
2013-03-11 21:20:00,42.6,34.0,29.64,WSW,256,7.0,-999.0,75,-99.99,,,2.00,ADS-WS1 bash script,2013-03-12 01:20:00,
2013-03-11 21:30:00,42.2,34.0,29.66,West,261,4.0,-999.0,77,-99.99,,,3.00,ADS-WS1 bash script,2013-03-12 01:30:00,
2013-03-11 21:35:00,42.0,34.0,29.65,WSW,242,10.0,-999.0,77,-99.99,,,3.00,ADS-WS1 bash script,2013-03-12 01:35:00,
2013-03-11 21:45:00,41.3,33.0,29.66,WNW,285,10.0,-999.0,76,-99.99,,,3.00,ADS-WS1 bash script,2013-03-12 01:45:00,
2013-03-11 21:50:00,40.9,34.0,29.66,WSW,258,11.0,-999.0,79,-99.99,,,3.00,ADS-WS1 bash script,2013-03-12 01:50:00,
2013-03-11 22:00:00,40.8,33.0,29.67,West,273,9.0,-999.0,77,-99.99,,,3.00,ADS-WS1 bash script,2013-03-12 02:00:00,
2013-03-11 22:05:00,40.6,33.0,29.68,West,279,17.0,-999.0,77,-99.99,,,3.00,ADS-WS1 bash script,2013-03-12 02:05:00,
2013-03-11 22:10:00,40.6,33.0,29.67,SW,234,7.0,-999.0,77,-99.99,,,3.00,ADS-WS1 bash script,2013-03-12 02:10:00,
2013-03-11 22:15:00,40.4,32.0,29.68,West,279,13.0,-999.0,76,-99.99,,,3.00,ADS-WS1 bash script,2013-03-12 02:15:00,
2013-03-11 22:20:00,40.2,32.0,29.69,West,268,12.0,-999.0,77,-99.99,,,3.00,ADS-WS1 bash script,2013-03-12 02:20:00,
2013-03-11 22:25:00,40.0,32.0,29.69,West,261,6.0,-999.0,77,-99.99,,,3.00,ADS-WS1 bash script,2013-03-12 02:25:00,
2013-03-11 22:30:00,39.9,32.0,29.69,WNW,285,10.0,-999.0,77,-99.99,,,3.00,ADS-WS1 bash script,2013-03-12 02:30:00,
2013-03-11 22:35:00,39.9,32.0,29.69,West,273,12.0,-999.0,77,-99.99,,,3.00,ADS-WS1 bash script,2013-03-12 02:35:00,
2013-03-11 22:40:00,39.7,33.0,29.69,West,262,5.0,-999.0,78,-99.99,,,3.00,ADS-WS1 bash script,2013-03-12 02:40:00,
2013-03-11 22:45:00,39.7,33.0,29.70,West,278,6.0,-999.0,79,-99.99,,,3.00,ADS-WS1 bash script,2013-03-12 02:45:00,
2013-03-11 22:50:00,39.7,33.0,29.70,NW,313,3.0,-999.0,78,-99.99,,,3.00,ADS-WS1 bash script,2013-03-12 02:50:00,
2013-03-11 22:55:00,39.5,33.0,29.70,West,272,6.0,-999.0,78,-99.99,,,3.00,ADS-WS1 bash script,2013-03-12 02:55:00,
2013-03-11 23:00:00,39.5,33.0,29.70,WSW,245,9.0,-999.0,78,-99.99,,,3.00,ADS-WS1 bash script,2013-03-12 03:00:00,
2013-03-11 23:05:00,39.5,33.0,29.70,WNW,286,15.0,-999.0,79,-99.99,,,3.00,ADS-WS1 bash script,2013-03-12 03:05:00,
2013-03-11 23:10:00,39.3,32.0,29.70,WSW,244,5.0,-999.0,80,-99.99,,,3.00,ADS-WS1 bash script,2013-03-12 03:10:00,
2013-03-11 23:15:00,39.3,33.0,29.70,WSW,255,5.0,-999.0,81,-99.99,,,3.00,ADS-WS1 bash script,2013-03-12 03:15:00,
2013-03-11 23:20:00,39.1,32.0,29.70,WSW,256,7.0,-999.0,80,-99.99,,,3.00,ADS-WS1 bash script,2013-03-12 03:20:00,
2013-03-11 23:30:00,39.1,32.0,29.70,West,268,10.0,-999.0,80,-99.99,,,3.00,ADS-WS1 bash script,2013-03-12 03:30:00,
2013-03-11 23:35:00,39.1,32.0,29.71,NW,313,3.0,-999.0,80,-99.99,,,3.00,ADS-WS1 bash script,2013-03-12 03:35:00,
2013-03-11 23:40:00,39.1,32.0,29.70,WNW,290,6.0,-999.0,80,-99.99,,,3.00,ADS-WS1 bash script,2013-03-12 03:40:00,
2013-03-11 23:45:00,39.1,33.0,29.71,SW,235,2.0,-999.0,82,-99.99,,,3.00,ADS-WS1 bash script,2013-03-12 03:45:00,
2013-03-11 23:50:00,39.0,32.0,29.70,WSW,239,7.0,-999.0,80,-99.99,,,3.00,ADS-WS1 bash script,2013-03-12 03:50:00,